Location: Poughquag
(41.6090°N, 73.6820°W)
Time: 08:37:50
(UTC-05:00)

DIWATA 2B (PO-101) - Pass Details

Date: 22 November 2025
Orbit: 563 x 574 km, 98.1° (Epoch: 07 December)

Event Time Altitude Azimuth Distance (km) Brightness Sun altitude
Rises 03:52:04 0° 117° (ESE) 2,760 ? -33.4°
Reaches altitude 10° 03:55:22 10° 87° (E) 1,867 ? -32.8°
Maximum altitude 03:57:01 12° 63° (ENE) 1,721 ? -32.5°
Drops below altitude 10° 03:58:41 10° 38° (NE) 1,870 ? -32.1°
Enters shadow 03:59:52 - 25° (NNE) 2,127 ? -31.9°
